sat.trackr.live / text

‹ back to catalog

STARLINK-37182

NORAD 68348 · 2026-059AD

PAYLOAD ACTIVE UNKNOWN

§ Identity

Operator
Country
US
Launch date
2026-03-22
Launch site
AFETR
Launch vehicle
Mass (kg)
RCS (m²)

Purposes: comms

External: N2YO · Heavens-Above · Gunter

§ Orbital elements

Epoch: 2026-05-25T04:00:03.998880Z

Period
93.85 min
Inclination
53.1596°
Eccentricity
0.0000713
Mean motion
15.34396309 rev/d
Perigee alt
462.2 km
Apogee alt
463.2 km
Semi-major
6,840.9 km
B*
-3.6778e-4
RAAN
348.9652°
Arg perigee
70.0668°
Mean anomaly
220.4139°
Rev number
592

§ Raw data

STARLINK-371821 68348U 26059AD  26145.16671295 -.00012779  00000+0 -36778-3 0  99972 68348  53.1596 348.9652 0000713  70.0668 220.4139 15.34396309  5925

JSON: /api/v1/satellites/68348 · /tle

For live sub-satellite position, see the globe view (requires WebGL).

§ Visibility from observer

Set your observer location to see the next 7 days of passes ≥ 10°. The values pass through the URL so the page stays shareable.

No JS? Fill the form by hand. The geolocation button needs JavaScript.